User: anonymous   Login
Location: Unspecified
(0.0000°N, 0.0000°E)
Time: 15:58:02
(UTC+02:00)
Language:

NATO 3D Rocket - Orbit

View from above orbital plane
View from above orbital plane
View from above satellite
View from above satellite

Ground track
Ground track

The orbit data is extracted from the following two-line orbital elements,

1 15392U 84115B   17263.32600392 +.00000193 +00000-0 +43141-4 0  9993
2 15392 021.4887 236.3912 1034584 082.5083 289.1469 12.45553171478090
Epoch (UTC): 20 September 2017 07:49:26
Eccentricity: 0.1034584
inclination: 21.4887°
perigee height: 670 km
apogee height: 2296 km
right ascension of ascending node: 236.3912°
argument of perigee: 82.5083°
revolutions per day: 12.45553171
mean anomaly at epoch: 289.1469°
orbit number at epoch: 47809

The dashed part of the orbit path shows where the satellite is in the earth's shadow,  

DLR